"read_dt","SO2 (ppb)","flags","PMT voltage (V)","lamp voltage (V)","lamp intensity (Hz)","internal temp (C)","react chamber temp (C)","sample flow (l/min)","pres (mmHg)","SO2 bkg (ppb)","SO2 coefficient"
2014-05-29 00:00:00,1924E-3,5C000000,-0724,0854,11950,028.6,045.5,0.486,733.2,01.19,0.508
2014-05-29 00:01:00,1705E-3,5C000000,-0724,0853,11918,028.6,045.5,0.486,733.2,01.19,0.508
2014-05-29 00:02:00,1771E-3,5C000000,-0724,0853,11821,028.6,045.5,0.486,733.3,01.19,0.508
2014-05-29 00:03:00,1844E-3,5C000000,-0724,0853,12027,028.6,045.5,0.486,733.3,01.19,0.508
2014-05-29 00:04:00,1772E-3,5C000000,-0724,0853,12066,028.6,045.5,0.486,733.3,01.19,0.508
2014-05-29 00:05:00,1900E-3,5C000000,-0724,0854,12093,028.6,045.5,0.486,733.3,01.19,0.508
2014-05-29 00:06:00,1736E-3,5C000000,-0724,0852,12158,028.6,045.5,0.486,733.3,01.19,0.508
2014-05-29 00:07:00,1809E-3,5C000000,-0724,0853,11979,028.6,045.5,0.487,733.4,01.19,0.508
2014-05-29 00:08:00,1827E-3,5C000000,-0724,0854,12056,028.6,045.5,0.486,733.3,01.19,0.508
2014-05-29 00:09:00,1773E-3,5C000000,-0724,0852,12025,028.6,045.5,0.486,733.4,01.19,0.508
2014-05-29 00:10:00,1870E-3,5C000000,-0724,0853,11954,028.6,045.5,0.486,733.4,01.19,0.508
2014-05-29 00:11:00,1870E-3,5C000000,-0724,0852,12030,028.6,045.5,0.486,733.5,01.19,0.508
2014-05-29 00:12:00,1734E-3,5C000000,-0724,0853,12085,028.6,045.5,0.486,733.4,01.19,0.508
2014-05-29 00:13:00,1873E-3,5C000000,-0724,0853,11960,028.6,045.5,0.486,733.4,01.19,0.508
2014-05-29 00:14:00,1784E-3,5C000000,-0724,0852,11950,028.6,045.5,0.486,733.4,01.19,0.508
2014-05-29 00:15:00,1810E-3,5C000000,-0724,0853,12018,028.6,045.5,0.487,733.4,01.19,0.508
2014-05-29 00:16:00,1937E-3,5C000000,-0724,0854,12130,028.6,045.5,0.486,733.4,01.19,0.508
2014-05-29 00:17:00,1921E-3,5C000000,-0724,0852,11986,028.7,045.5,0.486,733.4,01.19,0.508
2014-05-29 00:18:00,1788E-3,5C000000,-0724,0851,11812,028.6,045.5,0.486,733.4,01.19,0.508
2014-05-29 00:19:00,1869E-3,5C000000,-0724,0853,11996,028.6,045.5,0.486,733.4,01.19,0.508
2014-05-29 00:20:00,1659E-3,5C000000,-0724,0853,12064,028.7,045.5,0.486,733.4,01.19,0.508
2014-05-29 00:21:00,1790E-3,5C000000,-0724,0852,11841,028.7,045.5,0.486,733.4,01.19,0.508
2014-05-29 00:22:00,1672E-3,5C000000,-0724,0853,12044,028.7,045.5,0.486,733.3,01.19,0.508
2014-05-29 00:23:00,1782E-3,5C000000,-0724,0853,12129,028.7,045.5,0.487,733.4,01.19,0.508
2014-05-29 00:24:00,1829E-3,5C000000,-0724,0853,11993,028.7,045.5,0.486,733.4,01.19,0.508
2014-05-29 00:25:00,1838E-3,5C000000,-0724,0852,11918,028.6,045.5,0.486,733.5,01.19,0.508
2014-05-29 00:26:00,1833E-3,5C000000,-0724,0852,11858,028.7,045.5,0.486,733.4,01.19,0.508
2014-05-29 00:27:00,1775E-3,5C000000,-0724,0852,12019,028.7,045.5,0.486,733.4,01.19,0.508
2014-05-29 00:28:00,1771E-3,5C000000,-0724,0852,12071,028.7,045.5,0.486,733.4,01.19,0.508
2014-05-29 00:29:00,1624E-3,5C000000,-0724,0852,12027,028.7,045.5,0.486,733.4,01.19,0.508
2014-05-29 00:30:00,1742E-3,5C000000,-0724,0852,12009,028.7,045.5,0.486,733.3,01.19,0.508
2014-05-29 00:31:00,1777E-3,5C000000,-0724,0853,12124,028.7,045.5,0.486,733.3,01.19,0.508
2014-05-29 00:32:00,1782E-3,5C000000,-0724,0852,11880,028.7,045.5,0.486,733.3,01.19,0.508
2014-05-29 00:33:00,1857E-3,5C000000,-0724,0852,12134,028.7,045.5,0.486,733.4,01.19,0.508
2014-05-29 00:34:00,1745E-3,5C000000,-0724,0852,11936,028.7,045.5,0.486,733.4,01.19,0.508
2014-05-29 00:35:00,1763E-3,5C000000,-0724,0852,11951,028.7,045.5,0.486,733.3,01.19,0.508
2014-05-29 00:36:00,1836E-3,5C000000,-0724,0853,12004,028.7,045.5,0.486,733.4,01.19,0.508
2014-05-29 00:37:00,2025E-3,5C000000,-0724,0852,12079,028.7,045.5,0.486,733.3,01.19,0.508
2014-05-29 00:38:00,1807E-3,5C000000,-0724,0853,11895,028.7,045.5,0.486,733.3,01.19,0.508
2014-05-29 00:39:00,1883E-3,5C000000,-0724,0853,11913,028.7,045.5,0.486,733.4,01.19,0.508
2014-05-29 00:40:00,1916E-3,5C000000,-0724,0852,12013,028.7,045.5,0.486,733.4,01.19,0.508
2014-05-29 00:41:00,1812E-3,5C000000,-0724,0853,12120,028.7,045.5,0.486,733.3,01.19,0.508
2014-05-29 00:42:00,1859E-3,5C000000,-0724,0853,12083,028.7,045.5,0.486,733.4,01.19,0.508
2014-05-29 00:43:00,1802E-3,5C000000,-0724,0852,11940,028.7,045.5,0.486,733.3,01.19,0.508
2014-05-29 00:44:00,1994E-3,5C000000,-0724,0853,11964,028.7,045.5,0.486,733.4,01.19,0.508
2014-05-29 00:45:00,1806E-3,5C000000,-0724,0852,12019,028.7,045.5,0.486,733.3,01.19,0.508
2014-05-29 00:46:00,1786E-3,5C000000,-0724,0852,11957,028.7,045.5,0.486,733.4,01.19,0.508
2014-05-29 00:47:00,1835E-3,5C000000,-0724,0853,11749,028.7,045.5,0.486,733.4,01.19,0.508
2014-05-29 00:48:00,1825E-3,5C000000,-0724,0854,11905,028.7,045.5,0.486,733.4,01.19,0.508
2014-05-29 00:49:00,1793E-3,5C000000,-0724,0853,12004,028.7,045.5,0.486,733.4,01.19,0.508
2014-05-29 00:50:00,1879E-3,5C000000,-0724,0853,12097,028.7,045.5,0.486,733.4,01.19,0.508
2014-05-29 00:51:00,1749E-3,5C000000,-0724,0853,12112,028.7,045.5,0.486,733.4,01.19,0.508
2014-05-29 00:52:00,1828E-3,5C000000,-0724,0852,12020,028.7,045.5,0.486,733.4,01.19,0.508
2014-05-29 00:53:00,1790E-3,5C000000,-0724,0853,11976,028.7,045.5,0.486,733.4,01.19,0.508
2014-05-29 00:54:00,1844E-3,5C000000,-0724,0852,11891,028.7,045.5,0.486,733.4,01.19,0.508
2014-05-29 00:55:00,1906E-3,5C000000,-0724,0852,11934,028.7,045.5,0.486,733.4,01.19,0.508
2014-05-29 00:56:00,1834E-3,5C000000,-0724,0853,12025,028.7,045.5,0.486,733.4,01.19,0.508
2014-05-29 00:57:00,1842E-3,5C000000,-0724,0852,11895,028.8,045.5,0.486,733.4,01.19,0.508
2014-05-29 00:58:00,1878E-3,5C000000,-0724,0853,12190,028.8,045.5,0.486,733.4,01.19,0.508
2014-05-29 00:59:00,2032E-3,5C000000,-0724,0853,11948,028.7,045.5,0.486,733.3,01.19,0.508
2014-05-29 01:00:00,1907E-3,5C000000,-0724,0853,12065,028.8,045.5,0.486,733.3,01.19,0.508
2014-05-29 01:01:00,1860E-3,5C000000,-0724,0852,11979,028.8,045.5,0.486,733.3,01.19,0.508
2014-05-29 01:02:00,1814E-3,5C000000,-0724,0853,11983,028.8,045.5,0.486,733.3,01.19,0.508
2014-05-29 01:03:00,1872E-3,5C000000,-0724,0853,11987,028.8,045.5,0.486,733.3,01.19,0.508
2014-05-29 01:04:00,1892E-3,5C000000,-0724,0852,12005,028.8,045.5,0.486,733.2,01.19,0.508
2014-05-29 01:05:00,1818E-3,5C000000,-0724,0852,11989,028.8,045.5,0.486,733.3,01.19,0.508
2014-05-29 01:06:00,1843E-3,5C000000,-0724,0852,11992,028.8,045.5,0.486,733.2,01.19,0.508
2014-05-29 01:07:00,1788E-3,5C000000,-0724,0853,11971,028.8,045.5,0.486,733.2,01.19,0.508
2014-05-29 01:08:00,1824E-3,5C000000,-0724,0852,12004,028.8,045.5,0.486,733.2,01.19,0.508
2014-05-29 01:09:00,1872E-3,5C000000,-0724,0852,12041,028.8,045.5,0.486,733.2,01.19,0.508
2014-05-29 01:10:00,1874E-3,5C000000,-0724,0852,11838,028.8,045.5,0.486,733.3,01.19,0.508
2014-05-29 01:11:00,1785E-3,5C000000,-0724,0852,11887,028.8,045.5,0.486,733.2,01.19,0.508
2014-05-29 01:12:00,1824E-3,5C000000,-0724,0853,11872,028.8,045.5,0.486,733.2,01.19,0.508
2014-05-29 01:13:00,1810E-3,5C000000,-0724,0852,12084,028.8,045.5,0.486,733.2,01.19,0.508
2014-05-29 01:14:00,1813E-3,5C000000,-0724,0853,11945,028.8,045.5,0.486,733.2,01.19,0.508
2014-05-29 01:15:00,2055E-3,5C000000,-0724,0853,11970,028.8,045.5,0.486,733.2,01.19,0.508
2014-05-29 01:16:00,1843E-3,5C000000,-0724,0852,11866,028.8,045.5,0.486,733.2,01.19,0.508
2014-05-29 01:17:00,1814E-3,5C000000,-0724,0853,11868,028.8,045.5,0.486,733.2,01.19,0.508
2014-05-29 01:18:00,1892E-3,5C000000,-0724,0853,12255,028.8,045.5,0.486,733.2,01.19,0.508
2014-05-29 01:19:00,1761E-3,5C000000,-0724,0853,11862,028.8,045.5,0.486,733.2,01.19,0.508
2014-05-29 01:20:00,1809E-3,5C000000,-0724,0852,12091,028.8,045.5,0.486,733.2,01.19,0.508
2014-05-29 01:21:00,1742E-3,5C000000,-0724,0853,11646,028.8,045.5,0.486,733.1,01.19,0.508
2014-05-29 01:22:00,1743E-3,5C000000,-0724,0852,11777,028.8,045.5,0.486,733.1,01.19,0.508
2014-05-29 01:23:00,1745E-3,5C000000,-0724,0853,11927,028.8,045.5,0.486,733.1,01.19,0.508
2014-05-29 01:24:00,1860E-3,5C000000,-0724,0852,11910,028.8,045.5,0.486,733.1,01.19,0.508
2014-05-29 01:25:00,1879E-3,5C000000,-0724,0853,12080,028.8,045.5,0.486,733.0,01.19,0.508
2014-05-29 01:26:00,1863E-3,5C000000,-0724,0853,11832,028.8,045.5,0.486,733.0,01.19,0.508
2014-05-29 01:27:00,1804E-3,5C000000,-0724,0854,11973,028.8,045.5,0.486,733.0,01.19,0.508
2014-05-29 01:28:00,1825E-3,5C000000,-0724,0854,11975,028.8,045.5,0.486,733.0,01.19,0.508
2014-05-29 01:29:00,1786E-3,5C000000,-0724,0853,12042,028.8,045.5,0.486,733.0,01.19,0.508
2014-05-29 01:30:00,1849E-3,5C000000,-0724,0853,11977,028.8,045.5,0.486,733.0,01.19,0.508
2014-05-29 01:31:00,1778E-3,5C000000,-0724,0853,11981,028.8,045.5,0.486,732.9,01.19,0.508
2014-05-29 01:32:00,1809E-3,5C000000,-0724,0853,11971,028.8,045.5,0.486,732.9,01.19,0.508
2014-05-29 01:33:00,1774E-3,5C000000,-0724,0853,12135,028.8,045.5,0.486,733.0,01.19,0.508
2014-05-29 01:34:00,1769E-3,5C000000,-0724,0853,12112,028.8,045.5,0.486,732.9,01.19,0.508
2014-05-29 01:35:00,1845E-3,5C000000,-0724,0853,11990,028.8,045.5,0.486,732.9,01.19,0.508
2014-05-29 01:36:00,1784E-3,5C000000,-0724,0854,11935,028.8,045.5,0.485,732.8,01.19,0.508
2014-05-29 01:37:00,1907E-3,5C000000,-0724,0852,11940,028.8,045.5,0.486,732.9,01.19,0.508
2014-05-29 01:38:00,1900E-3,5C000000,-0724,0852,12018,028.8,045.5,0.486,732.9,01.19,0.508
2014-05-29 01:39:00,1841E-3,5C000000,-0724,0852,12093,028.8,045.5,0.486,732.9,01.19,0.508
2014-05-29 01:40:00,1835E-3,5C000000,-0724,0853,11695,028.8,045.5,0.486,732.8,01.19,0.508
2014-05-29 01:41:00,1875E-3,5C000000,-0724,0854,12021,028.8,045.5,0.486,732.8,01.19,0.508
2014-05-29 01:42:00,1779E-3,5C000000,-0724,0853,12002,028.8,045.5,0.485,732.8,01.19,0.508
2014-05-29 01:43:00,1916E-3,5C000000,-0724,0852,12034,028.8,045.5,0.485,732.9,01.19,0.508
2014-05-29 01:44:00,1773E-3,5C000000,-0724,0852,11989,028.8,045.5,0.486,732.8,01.19,0.508
2014-05-29 01:45:00,1962E-3,5C000000,-0724,0852,12039,028.8,045.5,0.486,732.8,01.19,0.508
2014-05-29 01:46:00,1812E-3,5C000000,-0724,0852,11947,028.8,045.5,0.486,732.8,01.19,0.508
2014-05-29 01:47:00,1802E-3,5C000000,-0724,0852,11956,028.8,045.5,0.486,732.8,01.19,0.508
2014-05-29 01:48:00,1925E-3,5C000000,-0724,0853,11890,028.8,045.5,0.486,732.8,01.19,0.508
2014-05-29 01:49:00,1767E-3,5C000000,-0724,0852,11947,028.9,045.5,0.486,732.7,01.19,0.508
2014-05-29 01:50:00,1775E-3,5C000000,-0724,0854,11937,028.8,045.5,0.485,732.7,01.19,0.508
2014-05-29 01:51:00,1831E-3,5C000000,-0724,0852,11861,028.9,045.5,0.485,732.7,01.19,0.508
2014-05-29 01:52:00,1829E-3,5C000000,-0724,0852,12036,028.9,045.5,0.486,732.7,01.19,0.508
2014-05-29 01:53:00,1851E-3,5C000000,-0724,0852,12026,028.9,045.5,0.486,732.7,01.19,0.508
2014-05-29 01:54:00,1713E-3,5C000000,-0724,0853,11931,028.9,045.5,0.486,732.6,01.19,0.508
2014-05-29 01:55:00,1685E-3,5C000000,-0724,0853,11884,028.9,045.5,0.485,732.6,01.19,0.508
2014-05-29 01:56:00,1789E-3,5C000000,-0724,0852,11969,028.9,045.5,0.485,732.6,01.19,0.508
2014-05-29 01:57:00,1778E-3,5C000000,-0724,0853,11687,028.9,045.5,0.485,732.6,01.19,0.508
2014-05-29 01:58:00,1776E-3,5C000000,-0724,0853,11761,028.9,045.5,0.485,732.6,01.19,0.508
2014-05-29 01:59:00,1840E-3,5C000000,-0724,0853,11886,028.9,045.5,0.486,732.7,01.19,0.508
2014-05-29 02:00:00,1812E-3,5C000000,-0724,0853,11972,028.9,045.5,0.486,732.6,01.19,0.508
2014-05-29 02:01:00,1806E-3,5C000000,-0724,0853,11759,028.9,045.5,0.486,732.6,01.19,0.508
2014-05-29 02:02:00,1896E-3,5C000000,-0724,0853,11830,028.9,045.5,0.486,732.7,01.19,0.508
2014-05-29 02:03:00,1837E-3,5C000000,-0724,0853,11775,028.9,045.5,0.486,732.6,01.19,0.508
2014-05-29 02:04:00,1823E-3,5C000000,-0724,0853,11793,028.9,045.5,0.485,732.6,01.19,0.508
2014-05-29 02:05:00,1906E-3,5C000000,-0724,0853,11797,028.9,045.5,0.485,732.7,01.19,0.508
2014-05-29 02:06:00,1765E-3,5C000000,-0724,0853,12058,028.9,045.5,0.486,732.6,01.19,0.508
2014-05-29 02:07:00,1773E-3,5C000000,-0724,0853,11895,028.9,045.5,0.486,732.6,01.19,0.508
2014-05-29 02:08:00,1759E-3,5C000000,-0724,0853,11921,028.9,045.5,0.486,732.6,01.19,0.508
2014-05-29 02:09:00,1859E-3,5C000000,-0724,0852,12127,028.9,045.5,0.486,732.6,01.19,0.508
2014-05-29 02:10:00,1863E-3,5C000000,-0724,0853,12042,028.9,045.5,0.486,732.6,01.19,0.508
2014-05-29 02:11:00,1889E-3,5C000000,-0724,0853,11873,028.9,045.5,0.485,732.6,01.19,0.508
2014-05-29 02:12:00,1860E-3,5C000000,-0724,0853,12101,028.9,045.5,0.485,732.6,01.19,0.508
2014-05-29 02:13:00,1917E-3,5C000000,-0724,0853,12000,028.9,045.5,0.485,732.7,01.19,0.508
2014-05-29 02:14:00,1824E-3,5C000000,-0724,0852,11993,028.9,045.5,0.486,732.7,01.19,0.508
2014-05-29 02:15:00,1862E-3,5C000000,-0724,0852,12081,028.9,045.5,0.486,732.6,01.19,0.508
2014-05-29 02:16:00,1715E-3,5C000000,-0724,0853,12124,028.9,045.5,0.486,732.6,01.19,0.508
2014-05-29 02:17:00,1819E-3,5C000000,-0724,0853,11905,028.9,045.5,0.486,732.6,01.19,0.508
2014-05-29 02:18:00,1825E-3,5C000000,-0724,0853,11914,028.9,045.5,0.485,732.7,01.19,0.508
2014-05-29 02:19:00,1694E-3,5C000000,-0724,0853,11942,028.9,045.5,0.485,732.7,01.19,0.508
2014-05-29 02:20:00,1876E-3,5C000000,-0724,0853,11985,028.9,045.5,0.485,732.6,01.19,0.508
2014-05-29 02:21:00,1807E-3,5C000000,-0724,0853,11763,028.9,045.5,0.486,732.6,01.19,0.508
2014-05-29 02:22:00,1787E-3,5C000000,-0724,0852,12017,028.9,045.5,0.486,732.7,01.19,0.508
2014-05-29 02:23:00,1605E-3,5C000000,-0724,0852,12036,028.9,045.5,0.486,732.7,01.19,0.508
2014-05-29 02:24:00,1821E-3,5C000000,-0724,0852,11976,028.9,045.5,0.486,732.7,01.19,0.508
2014-05-29 02:25:00,1756E-3,5C000000,-0724,0853,12005,029.0,045.5,0.485,732.6,01.19,0.508
2014-05-29 02:26:00,1835E-3,5C000000,-0724,0852,11984,028.9,045.5,0.485,732.7,01.19,0.508
2014-05-29 02:27:00,1851E-3,5C000000,-0724,0853,12026,028.9,045.5,0.485,732.6,01.19,0.508
2014-05-29 02:28:00,1887E-3,5C000000,-0724,0853,11813,028.9,045.5,0.486,732.6,01.19,0.508
2014-05-29 02:29:00,1866E-3,5C000000,-0724,0852,11964,028.9,045.5,0.486,732.6,01.19,0.508
2014-05-29 02:30:00,1858E-3,5C000000,-0724,0853,12016,028.9,045.5,0.486,732.5,01.19,0.508
2014-05-29 02:31:00,1863E-3,5C000000,-0724,0852,11866,028.9,045.5,0.486,732.5,01.19,0.508
2014-05-29 02:32:00,1765E-3,5C000000,-0724,0853,12006,029.0,045.5,0.485,732.6,01.19,0.508
2014-05-29 02:33:00,1838E-3,5C000000,-0724,0853,11997,029.0,045.5,0.485,732.6,01.19,0.508
2014-05-29 02:34:00,1811E-3,5C000000,-0724,0852,11851,029.0,045.5,0.486,732.6,01.19,0.508
2014-05-29 02:35:00,1867E-3,5C000000,-0724,0853,11840,029.0,045.5,0.486,732.5,01.19,0.508
2014-05-29 02:36:00,1787E-3,5C000000,-0724,0852,11949,029.0,045.5,0.486,732.5,01.19,0.508
2014-05-29 02:37:00,1843E-3,5C000000,-0724,0853,11895,029.0,045.5,0.486,732.6,01.19,0.508
2014-05-29 02:38:00,1732E-3,5C000000,-0724,0853,11776,029.0,045.5,0.485,732.6,01.19,0.508
2014-05-29 02:39:00,1848E-3,5C000000,-0724,0852,12060,029.0,045.5,0.485,732.6,01.19,0.508
2014-05-29 02:40:00,1794E-3,5C000000,-0724,0853,12066,029.0,045.5,0.485,732.6,01.19,0.508
2014-05-29 02:41:00,1825E-3,5C000000,-0724,0852,11755,029.0,045.5,0.485,732.6,01.19,0.508
2014-05-29 02:42:00,1820E-3,5C000000,-0724,0853,11922,029.0,045.5,0.486,732.6,01.19,0.508
2014-05-29 02:43:00,1816E-3,5C000000,-0724,0853,12089,029.0,045.5,0.486,732.6,01.19,0.508
2014-05-29 02:44:00,1781E-3,5C000000,-0724,0853,11947,029.0,045.5,0.486,732.5,01.19,0.508
2014-05-29 02:45:00,1933E-3,5C000000,-0724,0852,11948,029.0,045.5,0.486,732.6,01.19,0.508
2014-05-29 02:46:00,1790E-3,5C000000,-0724,0853,11933,029.0,045.5,0.485,732.6,01.19,0.508
2014-05-29 02:47:00,1781E-3,5C000000,-0724,0853,12116,029.0,045.5,0.485,732.6,01.19,0.508
2014-05-29 02:48:00,1778E-3,5C000000,-0724,0853,12029,029.0,045.5,0.485,732.6,01.19,0.508
2014-05-29 02:49:00,1817E-3,5C000000,-0724,0853,12109,029.0,045.5,0.486,732.5,01.19,0.508
2014-05-29 02:50:00,1886E-3,5C000000,-0724,0853,11952,029.0,045.5,0.486,732.5,01.19,0.508
2014-05-29 02:51:00,1870E-3,5C000000,-0724,0854,11902,029.0,045.5,0.486,732.6,01.19,0.508
2014-05-29 02:52:00,1742E-3,5C000000,-0724,0853,11983,029.0,045.5,0.486,732.5,01.19,0.508
2014-05-29 02:53:00,1871E-3,5C000000,-0724,0852,11998,029.0,045.5,0.485,732.6,01.19,0.508
2014-05-29 02:54:00,1825E-3,5C000000,-0724,0853,12046,029.0,045.5,0.485,732.5,01.19,0.508
2014-05-29 02:55:00,1841E-3,5C000000,-0724,0854,11972,029.0,045.5,0.485,732.6,01.19,0.508
2014-05-29 02:56:00,1965E-3,5C000000,-0724,0852,12059,029.0,045.5,0.485,732.6,01.19,0.508
2014-05-29 02:57:00,1814E-3,5C000000,-0724,0853,11928,029.0,045.5,0.486,732.6,01.19,0.508
2014-05-29 02:58:00,1877E-3,5C000000,-0724,0852,12013,029.0,045.5,0.486,732.5,01.19,0.508
2014-05-29 02:59:00,1767E-3,5C000000,-0724,0853,12087,029.0,045.5,0.486,732.6,01.19,0.508
2014-05-29 03:00:00,1988E-3,5C000000,-0724,0853,12001,029.0,045.5,0.485,732.6,01.19,0.508
2014-05-29 03:01:00,1860E-3,5C000000,-0724,0854,12165,029.0,045.5,0.485,732.5,01.19,0.508
2014-05-29 03:02:00,1768E-3,5C000000,-0724,0853,12098,029.0,045.5,0.485,732.5,01.19,0.508
2014-05-29 03:03:00,1794E-3,5C000000,-0724,0853,11953,029.0,045.5,0.486,732.5,01.19,0.508
2014-05-29 03:04:00,1770E-3,5C000000,-0724,0853,11955,029.0,045.5,0.486,732.5,01.19,0.508
2014-05-29 03:05:00,1801E-3,5C000000,-0724,0853,11877,029.0,045.5,0.486,732.5,01.19,0.508
2014-05-29 03:06:00,1833E-3,5C000000,-0724,0854,12010,029.0,045.5,0.485,732.5,01.19,0.508
2014-05-29 03:07:00,1770E-3,5C000000,-0724,0853,11954,029.0,045.5,0.485,732.4,01.19,0.508
2014-05-29 03:08:00,1679E-3,5C000000,-0724,0854,11846,029.0,045.5,0.485,732.5,01.19,0.508
2014-05-29 03:09:00,1814E-3,5C000000,-0724,0854,12027,029.0,045.5,0.485,732.5,01.19,0.508
2014-05-29 03:10:00,1690E-3,5C000000,-0724,0852,11986,029.0,045.5,0.486,732.5,01.19,0.508
2014-05-29 03:11:00,1700E-3,5C000000,-0724,0853,11965,029.1,045.5,0.486,732.4,01.19,0.508
2014-05-29 03:12:00,1845E-3,5C000000,-0724,0853,11875,029.1,045.5,0.486,732.4,01.19,0.508
2014-05-29 03:13:00,1878E-3,5C000000,-0724,0852,11871,029.1,045.5,0.485,732.5,01.19,0.508
2014-05-29 03:14:00,1862E-3,5C000000,-0724,0853,12096,029.0,045.5,0.485,732.4,01.19,0.508
2014-05-29 03:15:00,1837E-3,5C000000,-0724,0852,11986,029.1,045.5,0.485,732.5,01.19,0.508
2014-05-29 03:16:00,1897E-3,5C000000,-0724,0853,11989,029.1,045.5,0.485,732.4,01.19,0.508
2014-05-29 03:17:00,1826E-3,5C000000,-0724,0853,11814,029.1,045.5,0.486,732.4,01.19,0.508
2014-05-29 03:18:00,1895E-3,5C000000,-0724,0852,12037,029.1,045.5,0.486,732.4,01.19,0.508
2014-05-29 03:19:00,1787E-3,5C000000,-0724,0853,11997,029.1,045.5,0.485,732.4,01.19,0.508
2014-05-29 03:20:00,1892E-3,5C000000,-0724,0853,11966,029.1,045.5,0.485,732.4,01.19,0.508
2014-05-29 03:21:00,1826E-3,5C000000,-0724,0853,11918,029.1,045.5,0.485,732.4,01.19,0.508
2014-05-29 03:22:00,1865E-3,5C000000,-0724,0853,12075,029.1,045.5,0.485,732.3,01.19,0.508
2014-05-29 03:23:00,1823E-3,5C000000,-0724,0854,11998,029.1,045.5,0.485,732.4,01.19,0.508
2014-05-29 03:24:00,1844E-3,5C000000,-0724,0852,11883,029.1,045.5,0.486,732.3,01.19,0.508
2014-05-29 03:25:00,1826E-3,5C000000,-0724,0853,11978,029.1,045.5,0.486,732.3,01.19,0.508
2014-05-29 03:26:00,1775E-3,5C000000,-0724,0853,11919,029.1,045.5,0.485,732.3,01.19,0.508
2014-05-29 03:27:00,1805E-3,5C000000,-0724,0852,11925,029.1,045.5,0.485,732.3,01.19,0.508
2014-05-29 03:28:00,1746E-3,5C000000,-0724,0853,11993,029.1,045.5,0.485,732.3,01.19,0.508
2014-05-29 03:29:00,1869E-3,5C000000,-0724,0852,11946,029.1,045.5,0.485,732.3,01.19,0.508
2014-05-29 03:30:00,1826E-3,5C000000,-0724,0853,11899,029.1,045.5,0.485,732.3,01.19,0.508
2014-05-29 03:31:00,1891E-3,5C000000,-0724,0853,12038,029.1,045.5,0.486,732.3,01.19,0.508
2014-05-29 03:32:00,1877E-3,5C000000,-0724,0853,12024,029.1,045.5,0.485,732.2,01.19,0.508
2014-05-29 03:33:00,1777E-3,5C000000,-0724,0853,11928,029.1,045.5,0.485,732.3,01.19,0.508
2014-05-29 03:34:00,1845E-3,5C000000,-0724,0854,12016,029.1,045.5,0.485,732.3,01.19,0.508
2014-05-29 03:35:00,1804E-3,5C000000,-0724,0853,11982,029.1,045.5,0.485,732.3,01.19,0.508
2014-05-29 03:36:00,1811E-3,5C000000,-0724,0853,12064,029.1,045.5,0.485,732.3,01.19,0.508
2014-05-29 03:37:00,1734E-3,5C000000,-0724,0853,12049,029.1,045.5,0.485,732.3,01.19,0.508
2014-05-29 03:38:00,1766E-3,5C000000,-0724,0853,12049,029.1,045.5,0.485,732.3,01.19,0.508
2014-05-29 03:39:00,1635E-3,5C000000,-0724,0853,11837,029.1,045.5,0.486,732.3,01.19,0.508
2014-05-29 03:40:00,1786E-3,5C000000,-0724,0853,12045,029.1,045.5,0.485,732.2,01.19,0.508
2014-05-29 03:41:00,1898E-3,5C000000,-0724,0853,11944,029.1,045.5,0.485,732.2,01.19,0.508
2014-05-29 03:42:00,1725E-3,5C000000,-0724,0853,11899,029.1,045.5,0.485,732.2,01.19,0.508
2014-05-29 03:43:00,1864E-3,5C000000,-0724,0853,11989,029.1,045.5,0.485,732.2,01.19,0.508
2014-05-29 03:44:00,1772E-3,5C000000,-0724,0853,11854,029.1,045.5,0.485,732.2,01.19,0.508
2014-05-29 03:45:00,1765E-3,5C000000,-0724,0853,11981,029.1,045.5,0.485,732.2,01.19,0.508
2014-05-29 03:46:00,1943E-3,5C000000,-0724,0853,11992,029.1,045.5,0.485,732.2,01.19,0.508
2014-05-29 03:47:00,1801E-3,5C000000,-0724,0852,11945,029.1,045.5,0.485,732.2,01.19,0.508
2014-05-29 03:48:00,1860E-3,5C000000,-0724,0853,11963,029.1,045.5,0.485,732.2,01.19,0.508
2014-05-29 03:49:00,1784E-3,5C000000,-0724,0853,12022,029.1,045.5,0.485,732.2,01.19,0.508
2014-05-29 03:50:00,1809E-3,5C000000,-0724,0853,11746,029.1,045.5,0.485,732.2,01.19,0.508
2014-05-29 03:51:00,1984E-3,5C000000,-0724,0852,11926,029.1,045.5,0.485,732.2,01.19,0.508
2014-05-29 03:52:00,1847E-3,5C000000,-0724,0853,11877,029.1,045.5,0.485,732.2,01.19,0.508
2014-05-29 03:53:00,1784E-3,5C000000,-0724,0854,12130,029.1,045.5,0.485,732.2,01.19,0.508
2014-05-29 03:54:00,1730E-3,5C000000,-0724,0853,11967,029.1,045.5,0.485,732.2,01.19,0.508
2014-05-29 03:55:00,1715E-3,5C000000,-0724,0853,11961,029.1,045.5,0.485,732.2,01.19,0.508
2014-05-29 03:56:00,1778E-3,5C000000,-0724,0854,11852,029.1,045.5,0.485,732.2,01.19,0.508
2014-05-29 03:57:00,1728E-3,5C000000,-0724,0853,11977,029.1,045.5,0.485,732.1,01.19,0.508
2014-05-29 03:58:00,1737E-3,5C000000,-0724,0853,11959,029.1,045.5,0.485,732.2,01.19,0.508
2014-05-29 03:59:00,1889E-3,5C000000,-0724,0852,11801,029.2,045.5,0.485,732.1,01.19,0.508
2014-05-29 04:00:00,1821E-3,5C000000,-0724,0853,12129,029.2,045.5,0.485,732.1,01.19,0.508
2014-05-29 04:01:00,1903E-3,5C000000,-0724,0853,11838,029.2,045.5,0.485,732.1,01.19,0.508
2014-05-29 04:02:00,1747E-3,5C000000,-0724,0853,11911,029.2,045.5,0.485,732.1,01.19,0.508
2014-05-29 04:03:00,1877E-3,5C000000,-0724,0852,11837,029.2,045.5,0.485,732.1,01.19,0.508
2014-05-29 04:04:00,1709E-3,5C000000,-0724,0853,12077,029.2,045.5,0.485,732.1,01.19,0.508
2014-05-29 04:05:00,1861E-3,5C000000,-0724,0853,12144,029.2,045.5,0.485,732.1,01.19,0.508
2014-05-29 04:06:00,1782E-3,5C000000,-0724,0854,11973,029.2,045.5,0.485,732.1,01.19,0.508
2014-05-29 04:07:00,1853E-3,5C000000,-0724,0853,12003,029.2,045.5,0.485,732.0,01.19,0.508
2014-05-29 04:08:00,1807E-3,5C000000,-0724,0853,11886,029.2,045.5,0.485,732.0,01.19,0.508
2014-05-29 04:09:00,1730E-3,5C000000,-0724,0852,11948,029.2,045.5,0.485,732.0,01.19,0.508
2014-05-29 04:10:00,1898E-3,5C000000,-0724,0854,11983,029.2,045.5,0.485,732.0,01.19,0.508
2014-05-29 04:11:00,1744E-3,5C000000,-0724,0853,12009,029.2,045.5,0.485,732.0,01.19,0.508
2014-05-29 04:12:00,1881E-3,5C000000,-0724,0852,11760,029.2,045.5,0.485,732.0,01.19,0.508
2014-05-29 04:13:00,1825E-3,5C000000,-0724,0853,11923,029.2,045.5,0.485,732.0,01.19,0.508
2014-05-29 04:14:00,1947E-3,5C000000,-0724,0853,11960,029.2,045.5,0.485,732.0,01.19,0.508
2014-05-29 04:15:00,1902E-3,5C000000,-0724,0853,12123,029.2,045.5,0.485,732.0,01.19,0.508
2014-05-29 04:16:00,1829E-3,5C000000,-0724,0853,11869,029.2,045.5,0.485,732.0,01.19,0.508
2014-05-29 04:17:00,1910E-3,5C000000,-0724,0853,12049,029.3,045.5,0.485,732.0,01.19,0.508
2014-05-29 04:18:00,1814E-3,5C000000,-0724,0852,11914,029.2,045.5,0.485,732.0,01.19,0.508
2014-05-29 04:19:00,1782E-3,5C000000,-0724,0854,11891,029.3,045.5,0.485,732.0,01.19,0.508
2014-05-29 04:20:00,1849E-3,5C000000,-0724,0853,11644,029.3,045.5,0.485,732.0,01.19,0.508